一网星座-0115星 (ONEWEB-0115 )

导读

ONEWEB-0115是英国OneWeb公司低轨卫星星座的一员,于2021年3月25日发射入轨,属于OneWeb一期组网卫星。卫星重约147.5公斤,设计寿命5年,配备Ku/Ka波段天线与霍尔推进器,单星通信能力约7.5Gbps。它旨在为全球提供高速宽带互联网接入服务,助力偏远地区网络覆盖,支撑空天地一体化通信网络建设,是OneWeb全球星座组网的重要组成部分。

基本信息
目录编号:
48042
目录名称:
ONEWEB-0115
国际标识:
2021-025A
轨道中心:
EARTH
卫星名称:
一网星座-0115星
卫星全名:
一网星座-0115星 (ONEWEB-0115 )
卫星状态:
在轨 (已飞行2000 天)
发射日期:
2021-03-25 UTC
国别 :
英国 (GB)
星等 :
--
该卫星已列入 空间交会检测服务 Space Conjunction Data Service (SCDS) ,当前飞行风险评估等级: 无高风险
轨道信息
数据来源 国际轨道数据 AOE轨道数据
星历时间 2026-09-15T11:23:41+0800
19小时前
查看轨道信息
2026-09-15T23:00:00+0800
7小时前
查看轨道信息
半长轴 7587.913km 7587.916km
偏心率 0.0001982 0.0001894
轨道倾角 87.893° 87.893°
近地点辐角 94.185° 89.616°
升交点赤经 302.328° 302.232°
平近点角 265.951° 35.672°
近地点 1208.272km 1208.341km
远地点 1211.28km 1211.217km
周期 109.633分钟 109.634分钟
每日圈数 13.134675 13.134666
详细信息
平衡模式:
三轴稳定
覆盖范围:
全球
运营商:
一网卫星公司
运营商所在国:
英国
制造商(研发单位):
一网卫星公司
制造商所在国:
英国
使用方式:
暂无
卫星简介
OneWeb卫星网络由648颗重约125公斤的微型卫星组成,运行在1200公里的轨道上。 每颗卫星都能够提供至少每秒8千兆位的吞吐量,以使用其高吞吐量的Ku频段有效载荷为家庭和移动平台提供互联网接入。该卫星仍在工作。
2D轨道图
3D轨道图
轨道高度分析图
轨道倾角分析图
轨道综合分析图
查看轨道综合分析图
与全量物体交会距离演化趋势 订阅飞行安全评估服务
与全量物体交会风险概率演化趋势 订阅飞行安全评估服务